Lapse_Rate
7.5 7.6 6.3 6.8 5.6 6.0 6.1 6.4 6.0 5.8 6.2 6.0 6.1 6.3 5.8 5.2 5.7 5.7 6.0 6.2 6.3 6.0 5.9 5.5 5.3 5.1 5.4 5.4 5.2 5.2 5.1 5.2 5.0 5.4 5.2 5.4 5.5 5.5 5.7 5.7 5.9 5.9 6.0
7.5 7.3 6.7 6.3 6.7 7.0 7.3 7.2 6.6 6.1 6.3 6.2 6.3 5.8 6.0 5.9 5.8 5.9 6.2 5.9 5.6 5.6 5.5 5.5 5.5 5.5 5.4 5.2 5.1 5.1 5.2 5.2 5.4 5.4 5.6 5.7 5.7 5.7 5.7 5.7 5.7 5.6 5.5
7.5 7.4 7.3 7.1 6.9 7.1 7.2 7.3 7.0 6.7 6.7 6.2 6.5 6.0 5.8 5.9 6.0 5.9 5.8 5.7 5.6 5.5 5.5 5.5 5.6 5.5 5.3 5.3 5.1 5.2 5.4 5.4 5.4 5.6 5.6 5.7 6.0 5.9 6.0 5.9 5.7 5.7 5.8
7.4 7.6 7.5 7.2 7.1 7.0 7.1 7.0 7.0 6.9 6.8 6.7 6.1 6.0 6.4 6.2 6.2 6.0 5.8 5.6 5.5 5.5 5.5 5.5 5.5 5.5 5.4 5.3 5.4 5.4 5.5 5.5 5.8 5.7 5.6 4.8 5.0 5.2 5.4 5.2 5.0 5.0 4.8
8.0 7.6 7.5 7.3 7.3 7.2 6.9 7.0 6.8 6.5 6.7 6.5 6.4 6.4 6.2 6.0 6.0 5.9 5.7 5.6 5.6 5.6 5.7 5.7 5.7 5.8 5.7 5.6 5.6 5.9 5.7 5.7 5.6 4.6 4.7 4.7 4.7 4.8 4.9 5.2 5.3 5.2 5.2
7.9 7.7 7.5 7.3 7.1 6.9 7.0 6.9 6.9 6.6 6.6 6.5 6.4 6.2 6.0 5.8 5.9 5.7 5.7 5.7 5.7 5.7 5.7 5.7 6.0 5.9 6.0 5.9 5.9 6.0 6.0 5.9 5.9 5.8 5.8 5.0 5.2 5.5 5.1 5.5 5.8 5.9 6.1
7.5 7.5 7.5 7.4 7.3 7.4 7.1 7.3 7.1 7.0 7.0 6.5 6.4 6.1 5.7 5.8 5.7 5.6 5.6 5.6 5.7 5.7 5.8 6.0 6.1 6.2 6.5 6.4 6.3 6.4 6.3 6.4 6.3 6.3 6.2 6.2 6.2 6.0 6.1 6.0 6.0 6.1 6.1
7.6 7.4 7.4 7.1 7.3 7.4 7.4 6.9 6.8 6.6 6.6 6.3 6.1 5.8 5.6 5.6 5.5 5.5 5.6 5.7 5.8 6.0 6.2 6.4 6.5 6.5 6.6 6.5 6.5 6.5 6.5 6.5 6.4 6.3 6.4 6.2 6.2 6.1 6.1 6.1 6.0 5.9 6.0
7.1 6.8 6.8 6.8 7.0 7.3 7.1 6.6 6.4 6.3 6.2 5.9 5.8 5.7 5.7 5.9 5.7 5.8 5.9 6.0 6.2 6.4 6.4 6.6 6.6 6.5 6.4 6.4 6.5 6.5 6.6 6.6 6.5 6.3 6.2 6.0 6.0 6.0 5.9 6.0 5.8 5.8 5.9
6.7 6.6 6.5 6.5 6.7 7.0 6.6 6.4 6.3 6.2 5.9 5.6 5.6 5.7 5.7 5.8 6.0 6.0 6.0 6.1 6.3 6.3 6.3 6.3 6.3 6.3 6.4 6.3 6.4 6.4 6.4 6.3 6.0 5.9 5.8 5.7 5.7 5.7 5.6 5.7 5.6 5.6 5.8
6.6 6.5 6.3 6.5 6.9 6.7 6.5 6.3 6.2 5.9 5.7 5.3 5.5 5.6 5.8 6.0 6.2 6.1 6.2 6.4 6.4 6.3 6.4 5.4 6.1 6.1 6.2 6.2 6.2 6.1 6.0 6.0 5.9 5.7 5.6 5.9 5.8 5.6 5.6 5.5 5.5 5.6 5.7
6.7 6.7 6.5 6.5 6.7 6.7 6.6 6.4 6.3 6.0 5.8 5.7 5.7 5.7 5.8 6.1 6.2 6.3 6.4 6.6 6.7 6.6 6.6 5.8 5.4 5.4 6.0 6.2 6.2 6.0 5.8 5.8 5.7 5.6 5.6 5.6 5.3 5.2 5.2 5.1 5.1 5.3 5.4
6.8 6.7 6.6 6.6 6.7 6.8 6.7 6.5 6.3 6.1 5.9 6.0 5.8 5.8 5.8 5.9 6.5 6.6 6.6 6.5 6.5 6.5 6.4 6.5 6.0 5.8 5.8 5.9 6.0 5.9 5.9 5.9 5.9 5.8 5.7 5.6 5.5 5.2 5.6 5.6 5.3 5.4 5.8
6.9 6.7 6.6 6.7 6.7 6.6 6.5 6.4 6.3 6.2 5.9 5.8 4.5 4.5 4.8 4.9 5.1 6.2 6.5 6.3 6.2 6.3 6.2 6.2 6.0 5.8 5.7 5.8 5.9 5.9 5.9 5.9 6.0 6.0 5.9 5.9 5.7 5.5 5.5 5.5 5.3 5.4 5.9
6.6 6.5 6.5 6.5 6.4 6.5 6.3 6.3 5.4 4.9 4.5 4.6 5.2 5.0 5.2 5.3 5.3 5.3 5.4 5.7 5.8 6.0 5.8 5.6 5.7 5.6 5.7 5.6 5.6 5.9 5.8 6.1 6.1 6.6 6.6 6.5 6.2 6.0 6.1 5.9 5.9 6.1 6.0
6.4 6.4 5.9 5.0 5.2 5.9 5.0 5.8 5.9 5.8 6.2 6.3 6.2 6.3 5.9 5.6 5.5 5.4 5.3 5.3 5.3 5.6 5.6 5.6 5.5 5.6 5.6 5.7 5.9 5.8 5.9 5.5 5.4 5.9 6.0 5.9 6.0 6.1 6.0 5.9 5.9 5.8 5.6
6.0 5.7 5.1 5.2 5.3 5.2 5.0 5.2 5.4 5.5 5.4 5.9 6.0 6.0 6.0 6.0 5.8 5.6 5.8 5.8 5.8 5.8 5.9 6.0 6.0 6.1 5.8 5.7 6.2 5.9 5.6 5.5 5.6 5.9 5.8 5.8 5.6 5.6 5.7 5.8 5.8 5.8 5.8
6.1 5.9 5.4 5.5 5.4 5.3 5.4 5.5 5.4 5.2 5.4 5.4 5.7 5.9 6.0 6.2 6.1 6.1 6.0 6.1 6.3 6.2 6.2 6.2 6.2 6.3 6.1 5.8 6.2 5.9 5.7 6.0 6.0 6.0 6.2 6.0 5.8 5.7 5.8 5.7 5.8 5.8 5.8
6.0 6.1 5.7 5.8 5.5 5.7 5.7 5.7 5.5 5.6 5.4 5.5 5.5 5.5 5.7 5.8 6.3 6.5 6.5 6.5 6.5 6.4 6.4 6.4 6.4 6.4 6.3 6.3 6.1 5.8 6.2 6.1 6.1 6.1 6.0 6.1 5.9 5.8 5.9 5.7 5.7 5.7 5.8
6.2 6.0 5.4 5.4 5.5 5.5 5.6 5.4 5.3 5.6 5.8 5.6 5.7 5.6 5.8 6.0 6.2 6.3 6.4 6.4 6.4 6.5 6.6 6.5 6.4 6.4 6.5 6.1 6.0 5.9 5.9 6.2 6.3 6.3 6.2 6.1 6.0 6.0 6.0 5.7 5.5 5.5 5.3
6.2 5.8 5.5 5.3 5.3 5.7 5.4 5.5 5.6 5.6 5.5 5.6 6.0 5.5 5.8 6.3 6.4 6.2 5.3 6.5 6.5 6.6 6.7 6.7 6.5 6.2 6.2 6.6 6.3 6.5 6.6 6.4 6.1 6.0 6.0 5.9 5.9 5.8 5.6 5.6 5.6 5.6 5.6
6.0 6.0 5.8 5.7 5.8 5.6 5.6 5.4 5.5 5.7 5.7 6.2 6.0 5.9 6.2 6.3 6.3 6.3 6.2 6.3 6.4 6.4 6.5 6.4 6.3 6.4 6.3 6.0 6.4 6.6 6.5 6.3 6.2 6.0 5.9 6.2 5.8 5.7 5.6 5.5 5.4 5.7 5.5
6.1 6.2 6.1 6.1 6.0 5.9 6.0 6.0 6.1 6.2 5.7 6.1 6.6 6.3 6.4 6.7 6.5 6.4 6.5 6.8 6.7 6.5 6.4 6.3 6.2 6.6 6.2 6.1 6.2 6.2 6.1 6.3 6.2 5.9 5.9 5.9 5.7 5.6 5.6 5.5 5.4 4.7 4.2
6.2 6.2 6.0 6.1 6.1 6.1 6.1 5.7 5.7 5.7 6.0 6.2 6.4 6.6 6.8 7.0 6.5 6.3 6.4 6.3 6.7 6.1 6.8 6.7 5.9 6.2 6.0 5.8 5.9 5.9 6.0 6.0 6.3 6.0 5.8 5.9 5.9 5.7 5.8 5.8 5.5 5.1 4.5
6.0 6.1 6.3 6.5 6.4 6.4 6.3 6.2 6.2 6.2 5.8 5.5 6.3 6.5 6.7 6.8 6.9 6.5 6.7 6.5 6.0 6.4 6.5 6.3 6.6 6.7 6.0 6.0 5.9 6.2 5.9 5.9 5.9 6.0 5.8 5.6 5.6 5.7 5.8 5.3 5.0 4.6 4.6
6.3 6.4 6.5 6.5 6.4 6.3 6.4 6.5 6.6 6.4 6.5 6.4 6.6 6.5 6.5 6.7 6.1 6.6 6.7 6.7 6.0 5.9 6.2 6.0 6.1 6.1 5.9 6.2 6.3 6.2 6.3 6.1 5.9 5.6 5.4 5.4 5.5 5.4 5.3 4.9 4.5 4.6 4.8
Wind_Speed
14 16 19 17 16 18 16 14 10 7 8 8 7 7 7 7 8 6 4 5 5 2 0 3 2 3 5 3 2 3 2 1 3 3 2 5 2 2 3 2 8 6 8
17 17 17 13 16 13 10 9 8 8 10 7 8 8 7 8 7 7 6 6 5 4 4 3 3 3 1 2 3 1 3 1 4 2 2 3 4 3 2 2 7 10 5
16 16 13 12 11 12 10 11 12 12 9 7 6 8 8 8 7 8 7 7 6 7 6 6 5 3 5 3 5 3 3 4 4 4 0 5 2 4 3 7 6 8 11
13 12 13 11 10 9 7 6 7 8 9 8 10 10 9 8 9 7 7 7 6 7 7 7 8 7 6 3 4 3 4 3 5 5 6 4 5 6 4 5 6 7 5
7 7 6 6 8 6 5 7 8 8 7 9 8 8 7 8 8 9 9 9 8 7 8 7 8 3 6 2 5 2 3 5 7 6 5 4 4 2 2 6 6 6 5
8 8 8 8 8 7 7 8 8 10 8 9 8 8 10 9 14 7 5 9 9 8 7 6 4 7 5 5 6 4 5 5 6 6 8 6 4 4 4 6 7 8 8
7 8 9 11 10 9 8 9 8 9 8 9 9 9 9 8 8 9 1 5 7 7 7 7 7 8 11 9 12 11 9 9 9 8 8 8 9 5 6 5 6 7 8
8 7 7 9 10 9 9 10 11 9 10 9 9 9 8 5 10 8 5 6 6 7 7 8 8 7 6 5 7 10 11 10 13 10 10 10 9 9 8 7 7 8 9
9 8 9 8 8 8 9 8 9 10 10 9 9 9 8 8 11 10 8 9 10 9 9 8 8 9 7 8 9 10 10 10 11 23 22 19 17 17 13 8 11 10 11
8 11 11 10 10 10 11 10 9 9 9 8 9 9 10 9 14 14 11 8 9 9 9 10 11 11 3 10 9 9 10 10 9 10 11 12 17 17 22 13 11 11 11
9 10 10 8 8 9 9 8 8 8 8 8 8 8 8 9 10 15 15 9 9 8 7 8 10 19 16 12 12 11 11 9 9 8 10 10 9 10 10 14 14 10 11
12 11 11 10 8 8 9 8 8 7 6 8 7 7 9 10 11 13 13 14 11 10 10 7 2 14 14 13 10 14 15 11 10 11 11 11 9 9 7 7 15 18 15
10 9 9 10 8 10 10 9 8 8 8 8 9 9 9 9 10 15 17 16 15 10 10 9 7 2 6 7 12 13 9 10 11 11 11 11 10 9 8 9 7 7 9
10 9 8 9 9 8 8 8 8 9 10 9 9 9 9 9 9 10 11 10 13 9 12 13 14 14 11 11 6 10 10 11 11 11 11 11 8 8 3 3 6 8 7
10 10 10 9 10 10 9 9 10 10 6 7 9 9 8 8 1 4 3 9 8 7 10 12 12 11 12 11 11 11 10 11 10 9 8 8 6 5 5 6 7 7 8
12 10 10 10 12 9 9 8 10 10 7 6 7 4 9 4 6 6 5 7 9 3 5 10 10 10 10 8 6 8 5 7 6 5 6 7 7 10 10 9 9 10 11
12 11 10 9 8 8 5 2 5 13 11 12 12 12 11 12 3 9 4 4 5 2 7 11 11 11 10 8 9 8 8 7 4 6 8 8 9 9 8 9 10 9 10
14 12 9 9 9 9 9 11 7 9 11 12 17 17 17 14 14 9 8 3 7 6 10 13 12 12 11 9 7 9 9 8 8 8 9 9 9 9 9 10 9 10 8
14 12 12 11 10 10 10 8 6 10 8 7 9 10 17 11 8 9 12 9 12 13 12 12 12 12 12 9 8 8 8 9 8 8 9 9 9 9 10 10 10 9 8
11 14 12 12 11 13 8 10 10 6 7 12 5 12 11 8 9 11 11 12 12 12 13 11 13 10 12 8 6 7 9 10 10 9 10 10 10 10 11 10 10 9 7
12 15 20 14 13 11 12 14 11 13 10 11 4 11 11 10 10 5 11 12 12 12 12 12 12 10 7 8 7 8 12 12 11 11 11 11 10 10 11 11 10 10 10
12 11 11 14 12 12 9 9 14 6 10 4 8 17 15 14 12 12 11 11 12 12 10 11 10 10 10 8 9 12 13 13 12 11 11 11 11 11 11 10 10 10 10
10 10 11 10 11 12 13 12 16 12 11 8 16 18 12 12 14 13 12 14 14 14 13 11 9 10 9 12 10 11 13 12 12 11 12 12 12 12 11 10 7 8 10
12 11 11 11 11 12 11 10 12 17 12 14 17 15 10 8 9 12 12 10 14 6 9 5 13 16 12 9 8 9 11 13 14 13 16 13 12 10 9 10 6 4 6
11 12 13 12 13 13 14 13 13 17 4 15 17 10 11 12 11 9 12 11 12 6 14 13 16 17 14 17 18 17 18 21 19 18 12 14 12 8 3 3 5 7 10
11 11 13 10 11 12 14 12 12 10 12 15 12 12 13 8 12 10 7 7 11 14 10 9 8 12 14 14 16 17 13 15 14 16 8 4 4 6 5 2 11 10 10
Wind_Direction
166 148 148 164 163 187 206 190 206 211 183 195 197 206 193 185 165 167 158 150 186 185 273 197 268 344 338 29 32 348 41 325 264 72 60 113 194 297 3 347 261 254 204
167 160 172 183 189 196 200 196 188 198 187 178 190 186 192 178 167 160 180 173 190 189 206 172 207 196 307 30 245 306 72 286 343 197 109 179 203 160 241 277 281 327 342
172 174 183 195 193 192 193 172 184 185 161 162 185 196 191 185 175 193 200 185 203 184 194 194 186 181 213 190 297 190 160 213 201 284 181 213 194 211 198 231 238 244 257
191 179 183 179 185 176 152 133 146 163 167 174 190 202 197 194 192 186 192 191 188 182 191 200 181 191 201 205 244 248 241 290 214 247 253 255 222 144 230 264 243 205 295
119 127 137 131 132 128 137 141 155 169 174 184 187 185 191 195 191 186 183 186 186 191 199 200 206 153 60 16 288 302 343 230 268 262 258 253 241 358 360 336 308 295 300
118 124 127 123 130 154 160 158 162 173 180 185 184 193 196 209 128 130 214 184 188 197 205 211 220 168 205 224 271 279 308 285 282 300 308 324 344 302 291 347 346 329 316
147 153 153 151 154 161 161 159 177 181 166 191 190 193 195 133 132 150 256 248 199 211 215 224 230 242 186 197 216 224 236 244 247 276 287 294 314 305 302 311 305 319 305
140 152 136 157 149 154 171 176 180 182 179 181 179 181 186 167 150 160 193 244 234 243 239 225 233 272 246 238 244 219 232 224 218 230 232 250 260 269 277 269 261 273 264
147 159 159 174 149 167 161 178 197 175 176 179 178 186 198 175 161 166 191 214 228 237 235 236 250 247 238 190 247 262 271 273 261 209 227 246 255 267 268 285 278 278 280
176 174 170 161 167 163 191 183 178 173 179 189 184 189 202 193 176 176 197 245 238 234 220 222 196 238 253 184 228 245 251 256 256 278 223 245 252 253 249 233 249 257 266
168 184 163 163 189 176 169 172 175 191 171 217 188 198 213 207 185 185 195 237 256 241 243 232 228 198 215 189 213 244 246 262 264 253 255 252 246 230 232 227 221 225 254
173 171 167 167 181 162 175 181 187 194 205 195 220 223 214 215 211 194 194 214 253 268 278 274 306 182 195 201 204 235 247 268 263 262 265 269 264 261 269 255 213 229 252
178 173 172 175 194 164 185 189 197 198 241 214 210 224 235 203 209 187 194 206 227 243 263 290 100 170 196 222 233 243 228 242 248 256 260 264 270 278 276 269 265 268 262
182 178 182 187 194 199 194 200 218 223 210 223 237 235 230 222 214 196 205 210 225 223 247 261 267 280 273 270 249 221 228 235 245 262 280 286 287 280 290 275 288 293 292
186 186 189 199 196 196 228 221 218 225 255 228 228 241 236 236 243 38 173 204 215 207 231 237 245 228 232 232 225 229 223 213 217 231 245 273 290 307 284 273 281 280 269
191 197 204 215 181 210 213 213 237 263 269 283 281 265 294 353 67 33 25 88 106 88 234 244 265 271 262 261 253 244 248 252 243 215 224 243 242 254 259 255 257 258 261
214 209 217 221 239 192 189 253 271 219 221 219 232 236 208 251 257 113 77 29 53 83 259 255 258 264 265 258 238 246 255 249 254 267 259 271 275 276 278 272 269 269 271
217 242 244 222 216 258 193 207 210 252 209 216 228 225 231 228 238 177 151 146 246 228 246 253 252 250 247 247 249 254 255 260 256 240 247 252 257 265 270 267 258 264 283
217 229 220 249 256 236 251 226 184 267 290 314 280 193 220 213 224 154 166 232 245 253 249 231 237 245 249 238 249 245 255 254 247 247 244 245 248 248 255 259 262 238 236
234 251 251 233 227 245 244 257 249 218 262 253 271 290 210 157 209 211 211 226 235 242 251 250 248 233 215 244 235 239 237 236 239 235 237 246 247 244 246 256 261 272 224
215 227 210 231 247 242 224 234 246 258 242 272 208 263 261 188 224 234 261 204 220 230 238 247 257 255 212 210 214 221 239 242 235 230 231 231 234 242 247 249 256 256 260
223 233 215 210 230 240 249 272 253 240 271 191 247 252 226 208 232 252 252 255 261 262 251 244 233 237 255 222 211 222 231 237 238 237 234 236 237 239 244 248 246 255 262
244 247 253 244 219 204 230 222 243 229 220 191 233 254 227 213 229 235 235 239 243 246 249 244 234 232 230 234 221 217 226 233 237 235 233 235 235 239 244 249 244 222 241
260 264 251 248 236 247 249 234 244 256 230 244 227 237 252 252 230 231 238 230 244 199 216 257 306 252 239 231 223 221 221 225 236 238 230 236 235 231 241 254 268 281 221
246 263 270 260 261 253 244 241 202 220 152 251 248 244 261 240 228 245 265 275 296 248 248 224 221 230 234 235 243 240 218 217 226 231 234 228 233 243 272 38 11 277 269
228 233 249 264 267 269 269 257 255 267 260 266 257 236 235 250 256 255 250 243 238 262 265 255 235 233 234 241 230 230 231 198 199 194 180 110 104 106 78 42 267 252 236